GFSFLT2_850_thetae_057.txt.gz
Theta_e
330 330 328 327 326 322 323 319 322 319 315 314 314 316 319 324 319 320 320 321 321 319 319 317 317 314 312 309 306 307 308 312
331 330 330 328 327 329 327 326 323 318 314 316 315 316 319 319 320 319 320 320 321 320 319 319 318 313 311 308 307 306 307 311
327 328 329 326 327 323 325 327 324 318 318 314 312 313 316 320 320 319 319 320 320 320 318 318 316 313 310 308 308 308 308 315
327 326 323 327 329 328 325 325 323 321 316 313 311 313 316 320 319 319 318 319 319 318 317 317 316 312 310 309 309 310 310 314
327 324 323 323 327 327 325 321 325 321 316 312 313 316 318 319 319 318 318 318 317 317 317 316 314 312 310 310 310 310 310 312
326 326 323 326 326 325 323 321 321 320 314 313 314 314 317 318 318 318 318 318 318 317 316 312 312 311 310 310 310 310 310 311
329 329 325 326 324 323 319 319 321 321 316 314 313 313 313 313 313 313 314 316 317 316 313 312 311 311 309 309 311 311 311 309
329 327 325 325 323 319 319 320 323 320 317 315 316 317 315 314 312 312 314 315 315 313 312 312 311 310 309 309 311 311 311 310
326 327 327 324 322 319 317 320 321 318 318 316 317 317 317 316 313 313 313 314 315 314 312 312 312 309 308 309 310 311 311 311
324 327 327 324 322 318 316 317 319 318 321 317 315 317 318 318 316 315 316 317 315 314 313 313 312 311 309 309 311 312 311 312
324 326 326 326 324 318 316 318 318 320 319 316 317 317 318 318 318 317 318 318 318 319 319 318 313 312 311 311 310 311 311 311
325 325 325 325 325 320 317 318 318 320 318 316 316 316 318 318 318 318 318 319 319 320 320 318 316 315 316 317 315 311 310 310
324 324 323 325 324 321 318 316 316 317 316 317 317 319 316 319 318 318 317 320 320 320 320 320 320 320 319 318 317 314 312 312
321 322 323 323 323 322 317 316 316 318 318 317 320 319 316 318 315 316 318 320 320 320 320 320 321 321 320 318 315 316 317 315
318 321 322 323 324 322 322 321 319 317 318 321 321 319 316 317 316 320 320 320 320 319 320 321 321 321 321 320 318 317 318 317
317 319 321 322 323 322 321 320 316 316 321 319 317 316 317 316 319 316 318 318 319 317 316 318 319 320 321 321 320 320 318 315
317 318 320 320 321 323 321 321 317 320 320 315 316 317 316 316 315 315 317 317 317 317 317 319 319 320 320 320 320 320 319 315
317 319 321 320 322 323 320 321 318 321 319 314 319 319 317 317 316 316 316 315 315 314 317 319 319 320 320 321 321 320 319 320
317 318 320 321 322 323 321 319 317 320 318 315 318 319 318 316 315 316 316 314 314 314 314 314 317 318 318 318 320 321 321 321
315 317 320 320 320 320 320 319 317 317 320 316 316 319 317 316 316 316 316 316 316 315 315 314 313 315 318 319 320 321 319 321

GFSFLT2_850_thetae_063.txt.gz
Theta_e
336 337 336 332 330 333 334 337 335 331 327 323 321 325 326 320 323 315 310 309 308 307 307 307 307 310 317 319 320 321 322 321
333 335 333 328 323 324 332 336 335 332 326 322 321 324 322 321 326 319 312 310 310 310 309 308 308 309 312 318 320 321 321 321
333 333 332 327 324 327 327 328 335 331 326 322 324 327 323 325 328 319 313 314 315 313 311 309 308 308 312 319 321 321 321 321
333 332 331 328 325 326 326 324 328 330 326 323 326 327 327 328 325 319 316 316 317 314 311 309 309 309 318 320 321 322 321 321
332 331 329 326 324 326 324 329 332 328 326 322 328 326 326 326 324 318 318 318 318 315 312 312 317 316 320 322 322 322 322 320
330 327 326 324 325 327 325 323 327 327 325 322 327 324 325 324 322 320 319 319 319 315 317 320 319 318 320 322 322 322 321 320
329 327 327 324 325 327 326 327 327 325 322 320 323 324 324 324 322 323 321 323 321 320 323 321 320 319 320 321 322 322 321 320
329 328 325 326 324 325 324 324 326 324 321 320 322 320 324 324 324 325 323 323 323 322 323 321 319 319 320 321 321 321 321 321
328 327 326 326 324 324 325 325 326 326 321 320 320 324 323 325 325 324 324 324 322 322 322 321 319 319 319 320 320 321 321 321
327 327 327 325 325 326 326 326 325 323 321 321 318 316 321 323 323 323 323 324 323 321 320 320 319 318 319 319 319 320 320 321
327 326 325 325 324 324 323 323 324 322 321 318 314 315 320 321 321 321 321 321 321 320 319 319 319 318 318 318 318 318 319 319
327 325 325 325 325 323 322 322 323 320 319 317 320 321 319 319 319 320 319 318 319 319 319 318 318 317 316 316 317 317 317 316
327 327 324 325 324 322 320 321 320 319 313 317 319 319 317 316 315 315 316 318 318 318 318 317 316 315 314 315 315 315 315 315
324 326 326 326 325 322 320 320 321 319 316 319 318 315 315 315 318 314 318 317 318 319 319 320 318 316 314 314 316 316 316 315
325 324 325 325 324 321 320 319 320 318 317 316 317 319 319 318 319 319 316 321 321 322 321 321 320 318 316 319 319 319 319 317
325 322 324 323 322 323 321 319 319 318 317 316 316 318 318 318 316 318 319 320 322 323 323 321 321 322 320 319 321 322 321 320
323 323 322 323 323 322 323 319 319 320 317 318 320 316 317 319 316 317 318 320 321 322 322 321 321 320 321 322 320 320 321 321
324 323 322 322 323 322 323 322 319 319 319 318 318 317 318 318 320 319 318 318 320 318 319 321 320 319 318 319 321 321 321 321
324 323 323 322 324 323 323 322 322 318 318 318 318 316 318 318 319 319 319 318 317 317 319 319 319 318 316 316 318 321 321 321
324 323 323 324 321 321 322 324 322 321 320 319 318 317 316 317 318 317 319 319 317 317 319 316 316 316 316 316 317 318 321 321

GFSFLT2_850_thetae_066.txt.gz
Theta_e
334 337 337 336 334 332 333 333 335 333 327 324 326 324 327 327 326 318 315 312 309 309 309 311 311 317 320 321 322 322 322 319
330 335 337 335 333 332 331 330 327 335 327 323 324 323 328 327 321 312 315 309 309 310 308 309 313 320 321 322 322 321 321 320
332 331 332 333 332 328 325 325 326 327 328 323 325 327 325 320 316 311 310 308 308 307 307 308 312 317 321 321 321 321 321 320
334 333 332 332 329 325 324 327 325 322 329 326 326 326 321 321 322 311 308 308 309 309 308 308 311 318 321 322 322 322 321 320
330 333 332 331 327 325 325 327 325 326 329 326 327 323 322 328 322 312 313 313 312 310 308 308 312 320 321 322 322 321 321 317
330 332 332 330 326 325 327 327 325 324 329 326 325 324 326 327 322 314 316 315 313 310 308 309 313 320 322 322 322 321 321 318
330 331 330 328 324 326 327 325 324 324 328 328 326 324 327 325 321 316 317 317 314 312 318 318 316 320 322 321 322 322 321 317
328 329 328 328 325 326 326 325 329 327 326 327 326 325 326 324 319 317 318 318 314 321 322 319 319 320 320 322 322 321 321 318
328 329 328 326 327 326 325 327 327 327 325 325 324 324 324 324 320 318 320 319 316 323 323 320 320 320 321 321 322 322 321 320
328 328 326 327 327 325 324 325 324 326 324 321 321 323 320 323 322 321 322 322 320 322 322 321 319 319 320 321 321 322 322 321
327 328 327 326 325 324 324 326 326 325 324 323 322 318 320 323 323 322 323 324 322 323 322 320 319 319 319 319 320 321 321 321
327 328 327 325 325 324 322 322 322 325 324 322 321 321 323 323 323 323 323 324 323 321 320 320 320 319 318 319 319 319 319 320
328 327 327 325 325 325 322 323 324 323 322 321 318 321 315 320 321 322 322 322 322 321 319 319 319 318 318 318 318 318 317 318
325 325 324 325 325 323 321 323 323 322 321 320 318 316 316 321 321 321 321 320 320 320 319 318 317 317 316 316 316 316 316 316
326 324 324 325 325 323 321 322 322 321 320 317 315 315 316 318 319 317 317 317 317 318 317 316 316 316 315 315 315 316 316 315
325 323 324 325 326 323 321 321 321 320 319 317 316 316 315 318 316 315 314 315 318 316 315 317 319 318 316 314 318 320 320 319
325 324 324 322 324 323 322 320 321 320 316 317 318 318 317 316 316 317 316 314 317 321 320 320 321 321 320 316 318 321 321 321
325 326 323 323 322 323 322 320 320 320 315 317 319 319 316 316 320 319 318 316 320 318 318 320 320 321 320 319 318 319 319 319
325 325 323 322 324 322 322 322 320 320 320 317 317 318 318 318 318 318 318 318 316 318 317 317 320 320 319 319 318 317 318 319
326 325 323 323 321 323 322 323 323 320 320 319 317 316 317 317 317 317 317 317 317 318 319 317 318 317 319 318 318 317 316 316

GFSFLT2_850_thetae_069.txt.gz
Theta_e
330 335 337 337 337 335 336 335 328 335 332 327 329 327 327 329 328 326 320 323 315 316 317 318 322 322 322 322 322 321 319 314
328 331 337 335 336 335 334 333 331 326 330 330 328 327 325 329 326 322 314 311 313 311 312 315 321 321 322 322 322 322 318 311
328 329 334 336 336 334 333 332 327 325 324 324 328 330 326 326 325 318 312 309 310 310 309 312 319 321 322 322 321 321 315 310
330 330 331 332 333 332 331 326 325 325 324 323 332 331 328 326 320 314 310 309 309 309 310 318 320 321 321 321 321 320 319 314
330 327 331 332 330 329 325 324 326 326 325 327 329 330 328 321 318 310 309 309 308 307 314 319 321 321 321 322 322 321 321 318
329 330 331 331 331 326 324 324 326 324 324 329 330 329 323 321 312 308 308 307 307 308 310 315 320 321 322 322 321 321 321 318
328 330 331 332 328 325 325 328 326 325 328 324 328 324 321 324 312 309 310 310 309 308 309 314 321 322 322 323 322 321 321 318
329 329 329 329 325 324 326 325 325 326 328 327 326 323 320 325 312 312 313 312 310 308 308 318 321 321 321 322 322 321 321 319
328 328 328 329 325 325 326 325 325 325 327 328 325 322 326 325 314 314 315 313 310 313 311 314 320 321 320 322 322 321 321 318
328 328 328 326 327 326 325 325 325 325 327 329 326 325 325 324 317 316 316 313 319 320 319 319 320 320 322 322 322 321 321 320
328 329 327 326 326 326 324 326 326 326 326 326 325 324 323 322 318 317 317 316 323 323 321 320 319 319 321 321 322 321 321 321
326 328 327 326 324 325 324 324 325 325 326 326 324 323 321 319 320 318 318 317 320 323 321 320 319 319 319 320 320 321 321 321
326 325 326 325 323 323 324 324 325 326 325 324 322 322 319 320 322 320 320 321 320 323 322 320 319 319 319 319 320 319 320 320
326 326 324 323 324 324 324 323 321 322 323 324 322 320 319 323 322 322 322 322 322 322 321 320 320 319 319 319 319 319 319 318
327 325 324 323 324 324 323 321 322 324 324 323 322 319 322 323 321 321 322 322 321 320 320 320 319 318 318 319 317 317 317 317
327 324 323 323 324 324 323 322 323 323 323 323 321 320 322 322 321 320 321 320 321 321 320 319 318 318 317 316 316 315 316 316
328 326 322 323 323 324 323 321 323 323 322 321 320 322 318 320 321 321 320 319 320 320 319 318 318 315 314 316 315 315 320 320
327 327 322 322 323 323 323 321 322 321 321 321 318 318 317 317 320 320 318 315 314 314 316 316 315 316 315 316 315 315 318 320
327 327 323 321 324 323 322 322 321 321 321 320 317 317 316 315 316 316 315 315 315 317 316 316 319 319 319 321 320 318 316 318
326 325 324 323 320 323 323 322 321 321 321 320 318 317 315 315 315 316 317 315 317 315 317 318 319 317 317 320 320 319 318 318

GFSFLT2_850_thetae_072.txt.gz
Theta_e
329 333 339 337 338 338 335 336 337 334 331 327 326 323 328 330 328 327 327 326 322 323 324 325 326 326 324 324 323 323 322 316
326 328 331 337 338 338 336 336 334 328 328 330 326 329 329 329 327 325 324 319 320 323 324 324 323 323 323 323 321 321 317 314
329 327 328 334 336 337 336 334 333 331 326 328 323 328 328 328 327 325 319 314 321 322 323 322 321 322 322 321 321 320 312 309
331 330 329 332 337 335 333 332 331 330 328 327 327 325 330 328 327 321 313 315 319 320 323 321 321 322 322 322 321 317 309 307
331 330 328 330 332 334 333 332 331 329 327 326 325 324 330 329 327 321 311 315 315 317 322 321 321 322 321 321 320 319 314 308
332 330 329 330 332 331 331 328 325 325 325 325 324 326 329 329 325 318 311 310 310 311 317 321 322 321 321 321 320 320 320 314
326 328 330 331 330 329 327 324 324 325 325 325 325 326 325 328 321 314 310 309 309 311 319 321 321 320 322 321 321 320 320 318
324 327 330 328 330 327 325 325 326 326 324 325 329 328 327 326 317 311 309 308 308 312 319 321 321 321 323 321 321 321 320 319
324 326 328 329 328 324 324 325 325 326 325 324 330 327 327 320 312 308 308 307 308 312 319 320 321 322 322 322 322 322 320 320
325 327 328 328 327 324 326 325 325 325 329 326 329 327 322 321 310 308 309 309 308 309 316 320 321 321 321 321 321 321 320 319
323 326 327 328 326 326 325 326 326 327 328 327 327 325 320 322 312 310 311 310 308 308 319 320 319 320 321 321 321 320 320 320
321 327 327 327 325 328 325 325 326 326 327 327 326 324 323 324 313 313 313 310 310 309 317 317 318 318 321 321 321 321 321 320
322 325 326 325 325 324 324 326 326 326 326 327 326 324 325 326 317 315 315 311 318 319 319 319 319 319 321 320 321 321 321 321
323 324 326 326 324 323 326 323 324 325 325 326 326 325 325 325 321 315 316 315 321 323 321 319 319 319 319 320 320 320 320 320
325 323 322 323 324 323 323 325 323 323 324 326 326 325 323 320 322 316 318 317 321 322 322 320 319 319 319 319 319 320 320 320
325 326 323 323 323 323 323 322 323 323 324 325 325 324 321 320 321 319 319 320 319 321 323 321 319 319 319 319 318 319 319 318
325 326 323 321 322 322 323 323 321 324 322 322 323 323 322 320 322 322 321 321 321 322 322 321 320 320 319 318 319 317 314 316
326 325 325 322 322 322 322 324 321 321 322 322 323 323 323 321 323 323 323 322 321 321 321 319 319 319 318 317 316 317 314 317
325 326 326 323 321 321 322 323 322 321 322 322 322 322 322 320 322 322 321 321 319 319 319 318 318 319 318 316 315 315 315 315
326 325 325 323 320 321 322 322 322 322 322 322 322 322 322 320 321 320 320 320 318 318 318 318 318 318 318 316 315 316 316 317

GFSFLT2_850_thetae_075.txt.gz
Theta_e
324 331 334 338 337 336 336 336 334 332 331 327 325 322 322 327 330 332 332 330 325 326 326 326 325 325 324 324 322 321 322 322
325 325 329 333 338 336 337 336 335 332 328 329 325 325 325 327 329 331 331 328 324 325 325 324 324 324 323 323 322 322 320 318
329 328 325 327 335 337 337 336 335 332 325 325 326 328 326 327 330 328 328 327 323 324 325 325 325 324 324 322 320 319 317 313
330 330 329 329 331 334 337 337 334 333 331 327 325 327 327 325 327 326 327 326 323 324 326 326 324 324 322 321 321 318 312 310
330 330 330 329 331 333 332 334 332 331 329 326 325 327 325 325 325 326 326 325 324 324 324 322 322 322 321 321 320 315 309 309
330 331 331 330 334 332 331 330 331 330 330 327 327 325 325 326 325 327 326 324 323 323 323 321 321 321 322 321 318 313 308 308
329 329 328 328 330 331 332 332 330 330 329 328 327 326 324 325 325 328 323 323 323 322 322 321 321 322 321 320 320 320 319 310
327 324 325 328 329 330 329 328 325 325 325 327 327 326 324 327 325 327 320 322 322 321 321 321 321 321 321 320 320 320 319 317
327 322 326 327 327 329 328 326 324 324 325 325 325 325 327 327 326 327 318 319 318 321 320 321 321 321 321 321 321 320 320 319
325 320 325 327 328 328 325 324 325 325 327 326 325 325 325 326 328 325 316 314 314 314 320 320 320 321 322 321 321 321 320 319
325 320 326 327 327 327 324 325 325 325 326 325 324 325 327 326 326 319 311 311 311 314 320 320 320 322 322 322 321 321 320 319
324 319 325 325 326 326 325 324 326 325 327 327 324 327 327 326 325 317 310 310 310 317 320 320 320 321 321 321 321 321 320 320
324 319 322 324 327 326 325 324 326 326 327 327 325 325 326 325 320 313 309 308 309 317 319 320 321 321 320 321 321 320 320 320
324 320 321 323 326 324 325 325 328 327 328 326 323 324 322 319 320 309 309 309 308 310 317 320 319 319 320 321 320 320 320 320
325 321 320 322 324 323 324 324 326 326 327 327 327 326 325 320 321 310 311 310 308 308 317 319 318 318 320 321 320 321 321 320
326 323 321 322 322 323 323 324 323 325 325 325 326 326 325 322 324 313 313 311 310 310 314 316 316 318 319 320 321 319 320 320
327 325 323 321 321 323 322 323 323 321 323 323 325 326 326 324 325 317 315 315 314 320 322 321 320 319 319 318 319 318 318 318
327 326 324 322 321 322 322 322 322 323 323 323 324 324 326 326 324 321 317 317 317 319 322 321 322 320 319 318 318 318 318 317
327 326 325 323 320 320 321 322 322 322 323 320 322 324 324 323 321 320 320 318 318 319 319 320 322 320 319 319 319 319 318 318
327 326 324 324 322 320 321 321 322 322 321 322 321 323 322 322 322 320 320 322 320 320 320 320 321 320 320 318 318 318 318 317

GFSFLT2_850_thetae_078.txt.gz
Theta_e
325 328 328 332 336 336 337 335 333 331 329 330 332 328 324 324 325 322 326 329 328 329 328 328 328 328 328 328 327 327 327 325
325 327 327 329 334 335 335 337 336 333 331 331 328 326 325 324 325 331 332 330 329 325 327 327 328 328 328 327 326 326 324 322
326 327 325 328 331 335 335 336 336 335 332 331 326 326 324 326 324 327 331 329 327 324 327 327 327 325 324 323 322 321 320 320
327 328 328 328 328 330 333 333 334 334 333 328 324 327 324 323 327 329 331 328 325 325 326 326 325 324 323 323 321 319 319 315
327 329 329 329 329 328 331 332 332 332 330 325 325 328 324 325 327 325 328 327 325 325 325 325 324 323 323 321 320 318 315 314
329 330 330 330 330 330 330 331 331 331 331 328 329 326 325 327 327 326 327 326 325 324 324 325 325 323 322 320 320 315 312 311
330 330 330 330 330 330 329 329 329 330 330 330 326 325 325 325 325 325 325 326 324 324 325 325 323 322 321 320 315 310 309 310
330 330 329 326 327 327 329 328 328 329 329 328 327 326 327 326 325 325 324 325 324 324 325 323 321 321 321 320 318 318 315 309
330 329 325 324 328 326 330 330 329 330 329 329 328 327 325 325 325 326 325 326 324 324 323 321 321 321 321 320 320 320 318 315
330 328 323 325 326 327 329 328 327 326 325 325 328 327 326 325 325 325 325 326 325 323 322 321 321 321 321 320 320 320 319 317
329 327 323 325 326 327 328 325 324 324 324 324 325 326 327 326 326 326 325 326 324 323 321 321 321 321 321 321 321 320 320 319
328 326 323 326 326 326 326 325 324 325 325 324 326 325 325 327 326 326 325 324 323 323 320 320 321 320 321 321 321 320 320 319
327 326 323 326 326 325 325 327 327 326 325 327 325 326 325 325 325 326 326 324 321 322 320 319 320 320 322 321 320 320 319 319
327 326 323 324 324 325 324 326 325 325 327 327 327 325 324 325 325 325 326 322 319 320 318 319 319 321 322 321 320 319 318 319
327 326 322 322 323 327 323 323 323 326 326 326 325 325 325 325 326 326 324 317 313 313 317 319 319 321 321 321 320 320 319 319
327 326 322 321 323 325 323 322 323 324 325 326 323 323 322 321 319 318 321 312 312 312 318 320 319 320 321 321 320 320 320 320
327 326 323 321 322 322 320 322 323 324 324 324 325 325 324 322 318 318 319 310 310 309 317 319 319 320 320 320 320 320 319 319
327 327 324 322 321 320 322 321 322 322 325 324 325 324 325 324 324 320 317 310 311 309 311 311 319 319 318 316 318 320 320 318
327 327 326 323 322 321 321 322 322 322 323 322 322 323 325 324 325 322 321 315 313 310 309 310 317 317 317 318 319 319 320 319
328 327 326 324 322 321 320 322 322 322 322 320 320 321 323 323 325 324 324 316 314 315 314 317 319 319 319 318 319 319 319 318

GFSFLT2_850_thetae_084.txt.gz
Theta_e
324 322 321 322 326 332 333 332 331 331 330 330 332 332 333 333 334 333 332 332 331 328 329 329 332 331 329 330 330 331 334 332
325 323 322 324 325 331 334 333 331 330 330 330 332 331 331 334 332 331 329 329 328 326 326 329 330 330 330 330 330 330 332 332
325 324 323 325 327 328 334 334 333 332 331 330 332 332 332 329 327 330 328 326 323 325 327 329 329 330 330 329 329 330 331 330
328 325 324 325 328 328 334 335 335 334 333 332 331 331 331 330 330 327 326 325 323 321 326 327 327 329 330 329 329 330 329 328
328 326 325 326 325 326 334 336 335 335 335 334 332 330 330 330 328 326 325 324 324 326 328 327 329 328 328 329 328 329 326 325
326 327 327 327 326 327 328 334 339 336 335 333 333 331 330 330 326 325 325 325 326 326 328 327 329 329 329 329 327 325 324 323
326 327 327 328 328 327 329 332 333 332 333 331 331 332 330 328 327 327 325 325 327 328 328 328 329 328 329 327 326 324 323 321
329 327 328 329 330 328 329 331 331 330 331 330 330 330 328 327 327 327 325 326 328 328 327 328 327 328 327 326 324 323 322 320
333 328 329 330 331 330 328 329 330 329 329 330 330 330 327 327 326 327 326 326 327 327 326 326 327 327 326 325 324 321 320 319
334 329 329 330 331 328 323 324 328 328 328 328 328 330 329 325 326 328 326 327 327 325 327 327 326 326 326 324 322 320 319 319
332 329 330 330 331 324 324 322 328 327 328 328 328 329 328 327 328 328 327 326 327 324 326 326 325 325 324 323 322 321 321 320
334 329 330 330 330 323 325 324 328 328 328 328 327 327 327 327 327 327 327 327 326 324 325 325 325 324 323 323 322 322 321 321
333 329 330 330 329 323 324 326 328 329 328 330 329 328 327 327 327 327 326 327 326 324 321 324 324 324 323 322 322 322 321 322
330 329 329 330 329 324 323 324 328 328 328 326 326 325 325 325 326 326 327 326 326 323 317 324 324 323 323 322 321 321 320 320
325 328 330 330 327 323 324 324 325 325 325 324 325 325 325 325 324 325 326 326 325 324 324 324 324 323 323 322 321 321 322 321
325 329 329 330 327 324 324 324 324 325 325 324 326 324 325 325 326 324 325 325 326 325 325 324 323 323 323 322 321 320 321 322
327 329 329 329 327 326 325 324 324 325 323 325 325 324 324 324 324 326 325 326 325 325 325 324 323 322 323 323 323 323 322 321
328 329 329 328 326 327 325 324 323 323 323 326 325 324 323 323 324 324 325 324 325 324 325 324 323 323 322 322 322 322 322 322
328 329 329 327 326 327 323 324 323 322 324 325 325 324 323 323 323 322 324 324 325 325 324 322 323 322 321 321 321 322 321 321
329 329 328 327 327 324 321 325 322 322 323 324 324 324 324 323 322 323 324 324 324 323 318 318 323 323 322 320 319 319 320 320

GFSFLT2_850_thetae_090.txt.gz
Theta_e
323 322 321 319 319 321 324 330 331 331 332 334 336 337 338 337 337 335 333 333 333 329 330 331 327 330 330 331 330 331 332 332
324 323 322 321 320 320 322 328 331 332 333 333 335 336 336 337 336 335 333 333 333 325 326 328 326 328 328 327 329 330 331 332
329 324 323 322 321 320 321 325 330 332 332 332 333 334 335 335 335 335 333 333 332 331 328 328 324 326 328 327 328 329 330 330
337 326 328 324 322 321 321 324 328 332 332 332 331 331 332 333 333 334 332 331 330 329 327 326 325 323 328 327 327 329 330 330
342 328 327 325 324 323 321 322 325 331 333 332 331 331 333 333 333 333 332 330 329 327 328 325 323 325 327 326 328 331 330 329
343 343 336 326 326 325 331 334 334 336 336 336 336 335 334 333 333 332 332 329 328 328 327 326 324 324 326 326 328 329 327 326
341 344 342 330 332 335 337 338 334 336 336 335 335 335 334 333 333 332 332 331 330 328 327 326 325 325 326 326 327 327 329 328
340 342 339 335 336 340 334 329 326 331 334 332 332 333 333 332 333 332 331 330 329 328 326 326 326 325 326 327 326 328 327 327
340 339 340 337 341 332 328 326 327 326 326 330 333 333 334 332 331 332 331 330 329 327 326 325 325 326 328 327 326 326 325 325
337 338 339 337 339 333 328 328 328 328 325 327 332 331 332 331 331 331 331 330 329 328 325 325 326 328 327 325 325 325 324 322
331 337 336 338 338 339 339 333 328 326 325 328 331 331 332 331 330 331 330 329 328 327 325 325 325 327 326 326 325 324 322 321
333 337 335 339 338 339 338 336 330 325 332 330 329 329 331 330 330 330 329 328 327 327 325 326 325 326 327 323 324 322 322 321
331 335 334 339 337 339 337 334 329 326 324 324 326 329 329 329 328 329 329 328 327 327 324 325 325 326 324 324 322 321 320 319
331 332 334 338 336 339 334 331 329 326 322 323 329 328 328 328 327 329 330 329 327 327 325 324 324 324 324 323 322 322 321 321
334 334 337 338 337 338 333 332 331 329 326 325 328 328 328 327 327 328 327 327 327 326 327 324 322 322 323 322 322 321 320 320
333 337 339 337 338 335 333 331 330 327 325 325 326 328 328 327 327 327 327 327 328 328 327 326 323 324 324 322 320 320 320 321
329 338 339 338 338 335 334 331 330 328 325 327 327 328 328 327 328 327 326 326 326 327 326 326 323 322 323 323 320 321 320 320
330 336 338 338 337 335 333 331 329 328 327 326 327 326 326 325 325 325 325 326 325 325 325 325 325 321 323 322 321 320 322 322
331 335 337 336 335 334 333 331 329 328 326 327 325 327 325 324 324 324 324 324 325 325 323 324 324 321 321 322 321 318 323 322
335 336 335 335 334 333 332 331 329 327 327 327 326 325 324 323 323 323 323 324 324 325 325 325 324 321 321 321 321 321 322 322

GFSFLT2_850_thetae_093.txt.gz
Theta_e
326 322 320 319 318 318 320 324 328 330 331 333 335 337 338 337 336 336 335 334 334 332 332 331 328 325 329 330 330 332 333 333
328 322 321 320 319 319 318 320 325 329 331 333 334 336 337 337 337 336 336 334 333 332 328 327 326 323 329 329 329 331 332 332
329 324 322 321 320 320 319 319 322 327 330 331 333 334 335 336 337 336 336 333 333 333 328 326 328 322 328 328 328 328 331 332
335 329 323 322 322 321 320 320 319 323 329 331 331 332 333 334 335 335 335 333 333 331 327 327 326 324 328 326 329 328 329 331
338 335 329 324 322 322 322 321 320 321 325 330 331 331 331 332 334 334 334 332 331 330 329 328 326 323 325 326 328 328 328 328
340 339 331 327 325 323 323 322 321 320 323 330 331 331 330 330 332 332 332 332 330 329 326 327 328 324 326 326 326 328 328 329
341 340 337 328 327 326 324 324 324 323 324 328 332 334 333 332 332 331 331 331 331 328 327 327 327 326 324 326 326 329 328 328
342 341 339 337 330 328 327 326 328 328 325 327 330 334 334 334 332 331 331 331 330 329 329 328 327 326 326 325 327 327 328 328
338 341 340 339 335 329 339 333 332 329 325 324 326 330 332 333 332 330 330 330 331 331 329 328 327 326 326 325 326 326 326 328
324 339 340 339 339 331 338 339 333 327 326 325 324 328 332 332 332 330 330 331 330 330 328 327 326 326 325 326 326 326 327 326
322 334 339 339 340 336 331 338 332 327 327 325 322 328 331 331 333 331 330 331 330 330 329 327 326 325 326 326 326 326 325 323
319 329 337 339 340 337 333 332 332 329 327 322 325 325 329 331 331 331 331 331 330 329 328 327 325 324 326 328 326 324 323 322
319 327 337 339 340 337 333 333 336 332 327 323 324 325 327 330 330 330 329 330 329 328 327 326 325 325 326 326 325 323 322 321
321 326 338 338 338 336 334 334 335 332 328 326 330 325 327 327 330 329 328 329 329 328 327 326 325 325 326 325 322 322 321 320
323 326 338 336 338 337 338 337 335 332 329 325 327 324 327 327 327 326 326 326 328 328 327 326 325 325 325 322 322 321 320 319
323 327 338 336 338 336 335 334 336 331 328 326 322 326 330 327 326 325 326 326 328 328 328 327 325 326 323 323 322 321 320 321
327 334 336 334 336 336 335 335 334 330 329 327 324 326 326 326 327 326 327 328 328 327 326 327 324 323 322 323 322 321 320 320
334 336 334 334 335 336 334 335 332 331 328 326 326 326 326 326 325 325 326 326 327 326 325 327 326 323 323 323 322 321 320 319
334 336 336 334 336 336 333 334 333 330 327 328 326 325 326 326 328 326 327 326 325 326 326 327 326 326 323 323 322 321 319 319
333 330 333 334 336 335 334 333 332 329 328 327 325 324 324 326 324 324 323 324 326 326 326 325 324 326 324 324 323 321 321 321

GFSFLT2_850_thetae_096.txt.gz
Theta_e
321 322 320 319 318 318 318 320 323 328 331 331 333 335 336 337 336 336 336 334 334 331 332 330 324 325 326 328 330 331 333 333
322 322 320 319 318 318 319 320 322 327 329 329 331 333 336 337 336 336 336 335 334 332 331 331 326 323 324 327 329 330 332 331
325 323 321 320 319 319 319 320 321 326 328 329 331 333 335 337 336 336 336 334 334 332 330 330 326 324 326 326 328 329 332 331
332 326 322 321 320 320 320 320 320 323 326 328 330 331 333 335 336 336 336 334 333 333 330 327 326 325 328 328 327 329 330 329
334 333 327 322 321 321 321 320 320 322 326 327 329 330 331 333 334 336 336 334 333 333 332 327 326 324 327 328 329 326 328 330
336 337 336 331 323 321 321 321 321 321 324 325 326 328 330 330 331 333 334 334 333 332 330 327 327 325 325 325 328 327 327 328
339 338 338 337 328 323 322 322 322 321 323 324 322 324 328 330 330 330 332 333 331 331 329 328 327 327 326 326 327 328 326 328
332 337 339 340 337 326 323 323 323 323 322 322 320 323 328 331 331 331 331 332 332 331 328 327 327 326 327 327 326 327 327 328
324 327 334 341 340 332 326 324 326 328 325 325 322 325 328 331 332 333 331 331 331 331 329 328 327 328 327 326 326 325 326 328
321 322 329 335 339 338 331 325 325 329 331 328 325 326 330 331 332 332 331 330 330 330 330 328 328 326 326 326 325 326 326 327
318 318 326 330 338 337 334 328 326 330 334 328 328 328 329 330 331 332 331 330 329 329 329 329 327 326 325 326 326 326 326 326
317 318 319 326 332 337 336 332 332 335 333 328 328 327 325 330 331 332 332 331 330 329 329 328 327 326 326 325 325 326 327 326
317 318 320 324 334 335 337 335 334 337 333 328 328 326 325 329 329 331 332 331 330 330 329 329 327 326 326 326 326 326 327 327
317 318 319 321 327 330 333 337 336 334 329 328 326 326 325 327 327 330 330 330 330 330 329 328 328 327 325 325 325 324 326 326
317 318 318 320 321 333 333 335 334 334 333 330 325 326 323 328 328 328 329 329 328 329 329 328 327 325 325 324 323 321 324 323
317 319 319 320 324 332 330 335 334 332 333 330 327 330 333 330 329 328 329 327 326 327 327 327 327 326 325 325 324 322 322 321
319 320 321 323 326 330 330 336 334 332 333 330 328 326 330 331 328 328 327 326 326 326 326 326 326 326 325 324 323 322 321 321
325 322 323 325 331 333 336 334 334 334 333 331 328 325 323 330 329 327 325 325 325 326 326 326 325 325 326 324 323 321 321 320
335 332 332 329 334 334 335 334 335 335 334 330 328 324 324 324 323 324 325 325 325 326 326 327 326 325 325 325 322 322 322 320
335 334 331 331 333 333 332 335 336 335 331 329 327 324 324 323 325 325 324 325 325 324 325 325 325 325 326 325 323 322 321 321

GFSFLT2_850_thetae_102.txt.gz
Theta_e
324 323 322 321 321 321 323 327 330 334 336 337 337 337 336 336 335 335 335 334 332 333 332 331 328 329 328 327 326 325 328 330
324 322 322 322 321 321 320 322 325 330 333 335 336 336 336 336 335 335 335 335 333 333 332 329 329 328 327 327 327 328 331 332
323 322 321 321 321 320 320 320 322 325 329 332 335 335 336 335 334 335 335 335 334 333 331 330 329 327 326 326 327 330 330 330
323 322 321 321 321 320 320 320 320 322 326 329 332 333 334 334 333 334 335 335 335 333 332 331 330 327 325 328 328 329 329 331
322 322 322 322 320 319 319 320 319 320 322 326 329 331 332 333 333 334 335 335 335 334 332 331 331 328 326 326 326 328 327 330
324 324 323 322 322 320 319 319 319 319 319 321 325 329 330 331 332 333 334 335 335 334 333 332 331 328 326 326 327 328 327 330
335 335 333 330 326 322 320 320 320 319 319 319 321 324 328 329 331 332 334 334 335 335 333 332 330 329 327 326 327 326 326 328
328 337 337 337 334 327 323 321 320 321 320 320 320 321 324 328 329 331 333 334 334 335 333 332 330 329 328 326 326 327 326 327
315 319 329 337 337 335 333 333 330 322 321 321 321 321 322 327 328 329 331 332 334 334 333 332 330 330 327 327 327 327 325 326
313 314 315 322 337 336 335 334 335 329 322 321 322 321 323 325 327 328 330 331 333 333 333 332 330 329 328 327 327 326 326 326
313 314 314 314 317 334 335 333 334 335 328 322 322 322 323 325 325 326 329 330 331 332 332 331 330 329 328 327 326 326 325 323
313 313 314 315 315 323 333 333 332 336 334 327 323 323 324 323 326 326 329 331 331 332 332 331 330 329 328 327 326 326 325 324
313 314 313 314 314 322 330 334 328 329 335 333 326 324 326 326 327 326 329 331 331 332 332 330 331 329 328 327 327 327 326 326
314 315 313 313 314 316 317 323 328 324 332 334 332 326 328 328 328 327 327 331 330 333 333 330 329 329 328 327 327 326 325 326
316 313 312 313 314 316 323 327 331 333 330 335 334 329 330 331 329 329 329 333 331 333 334 333 329 328 326 327 325 325 326 325
320 316 313 312 314 317 320 322 323 322 323 330 334 333 332 334 331 330 330 332 331 331 333 332 330 327 327 327 326 325 324 324
325 322 318 314 315 316 316 318 322 322 321 323 333 331 330 335 334 331 329 327 329 330 331 332 329 328 327 326 327 325 324 324
320 325 324 318 325 317 318 317 319 325 328 326 332 332 331 332 332 329 326 326 330 332 331 330 328 328 328 329 327 325 325 324
320 322 326 323 323 325 318 322 322 323 324 325 331 331 331 332 331 328 326 324 327 325 329 330 326 327 327 326 328 326 325 324
321 321 324 327 328 330 329 330 326 326 329 332 331 330 328 328 331 327 325 326 326 326 325 329 325 325 326 325 324 326 326 324